{"data":{"norad_id":66048,"intl_designator":"2025-233R","name":"QIANFAN-106","alt_names":[],"object_type":"PAYLOAD","status":"ACTIVE","operator":null,"country":"PRC","launch_date":"2025-10-17","launch_site_code":"TAISC","launch_vehicle":null,"mission":null,"orbit_class":"UNKNOWN","rcs_meters":null,"size_class":null,"mass_kg":null,"dimensions":null,"purposes":[],"wikipedia_slug":null,"has_3d_model":false,"image_url":null,"decayed_at":null,"tle_current":{"epoch":"2026-09-20T15:46:09.159744Z","epoch_age_seconds":126782,"freshness":"FRESH","line1":"1 66048U 25233R   26263.65705046  .00000081  00000+0  10652-3 0  9996","line2":"2 66048  89.0048  33.4968 0001639 110.9475 249.1852 13.51030311 46070","mean_motion":13.51030311,"eccentricity":0.0001639,"inclination_deg":89.0048,"raan_deg":33.4968,"arg_perigee_deg":110.9475,"mean_anomaly_deg":249.1852,"bstar":0.00010652,"rev_number":4607,"period_min":106.5853214599,"perigee_km":1067.249705487,"apogee_km":1069.6907033286,"semimajor_km":7446.6072044078,"source":"CELESTRAK","updated_at":"2026-09-21T09:00:15.735710Z"}}}